GW1859 Weather Reports


time (UTC)temp
C
wind
direction
speed
KPH
gust
KPH
rain 1hr
cm
rain 24hr
cm
rain mn
cm
humidity
%
barometer
mb
20260510164237 13 122 0.0 0.0 0.00 0.00 0.00 79 1023.7
20260510163732 13 128 0.0 0.0 0.00 0.00 0.00 83 1023.6
20260510163228 13 119 0.0 0.0 0.00 0.00 0.00 84 1023.7
20260510162728 12 101 1.6 3.2 0.00 0.00 0.00 85 1023.6
20260510162225 12 119 0.0 0.0 0.00 0.00 0.00 88 1023.5
20260510161721 11 120 0.0 0.0 0.00 0.00 0.00 90 1023.5
20260510161217 11 109 0.0 0.0 0.00 0.00 0.00 90 1023.7
20260510160715 11 124 0.0 0.0 0.00 0.00 0.00 91 1023.7
20260510160210 11 123 0.0 0.0 0.00 0.00 0.00 92 1023.4
20260510155706 11 46 0.0 1.6 0.00 0.00 0.00 91 1023.8
20260510155202 11 356 0.0 1.6 0.00 0.00 0.00 92 1023.7
20260510154657 11 356 0.0 1.6 0.00 0.00 0.00 92 1023.3
20260510154153 11 356 0.0 1.6 0.00 0.00 0.00 92 1023.2
20260510153648 11 112 0.0 0.0 0.00 0.00 0.00 93 1022.7
20260510153146 11 126 0.0 0.0 0.00 0.00 0.00 93 1022.6
20260510152642 11 124 0.0 0.0 0.00 0.00 0.00 93 1022.5
20260510152138 11 124 0.0 0.0 0.00 0.00 0.00 93 1022.5
20260510151635 11 123 0.0 0.0 0.00 0.00 0.00 92 1022.8
20260510151133 11 127 0.0 0.0 0.00 0.00 0.00 92 1023.0
20260510150628 11 122 0.0 0.0 0.00 0.00 0.00 93 1023.0
20260510150124 11 122 0.0 0.0 0.00 0.00 0.00 93 1022.7
20260510145621 11 124 0.0 0.0 0.00 0.00 0.00 92 1022.8
20260510145117 11 124 0.0 0.0 0.00 0.00 0.00 92 1022.8
20260510144613 11 124 0.0 0.0 0.00 0.00 0.00 92 1022.7
20260510144109 11 116 0.0 0.0 0.00 0.00 0.00 92 1022.5
20260510143605 11 116 0.0 0.0 0.00 0.00 0.00 92 1022.7
20260510143101 11 123 0.0 0.0 0.00 0.00 0.00 92 1022.8
20260510142558 11 117 0.0 0.0 0.00 0.00 0.00 92 1023.0
20260510142055 11 92 1.6 4.8 0.00 0.00 0.00 93 1023.1
20260510141552 11 125 0.0 0.0 0.00 0.00 0.00 92 1023.2
20260510141050 11 125 0.0 0.0 0.00 0.00 0.00 92 1023.2
20260510140546 11 125 0.0 0.0 0.00 0.00 0.00 92 1023.2
20260510140045 11 123 0.0 0.0 0.00 0.00 0.00 92 1022.8
20260510135541 11 121 0.0 0.0 0.00 0.00 0.00 92 1022.8
20260510135038 11 118 0.0 0.0 0.00 0.00 0.00 92 1022.7
20260510134535 11 123 0.0 0.0 0.00 0.00 0.00 92 1022.6
20260510134032 11 110 0.0 0.0 0.00 0.00 0.00 92 1022.9
20260510133527 11 120 0.0 0.0 0.00 0.00 0.00 92 1022.8
20260510133024 11 124 0.0 0.0 0.00 0.00 0.00 92 1023.2
20260510132521 11 126 0.0 0.0 0.00 0.00 0.00 91 1023.1
20260510132017 11 120 0.0 0.0 0.00 0.00 0.00 91 1023.2
20260510131515 11 121 0.0 0.0 0.00 0.00 0.00 90 1023.1
20260510131012 11 121 0.0 0.0 0.00 0.00 0.00 90 1022.6
20260510130508 11 118 0.0 0.0 0.00 0.00 0.00 89 1022.2
20260510130006 12 109 1.6 3.2 0.00 0.00 0.00 88 1022.4
20260510125502 12 130 0.0 0.0 0.00 0.00 0.00 87 1022.3
20260510124959 12 117 0.0 0.0 0.00 0.00 0.00 86 1022.4
20260510124455 13 129 0.0 0.0 0.00 0.00 0.00 83 1021.8
20260510123952 13 124 0.0 0.0 0.00 0.00 0.00 82 1021.6
20260510123447 13 123 0.0 0.0 0.00 0.00 0.00 79 1021.5
20260510122943 14 124 0.0 0.0 0.00 0.00 0.00 76 1021.4
20260510122439 14 123 0.0 0.0 0.00 0.00 0.00 72 1021.3
20260510121935 15 122 0.0 0.0 0.00 0.00 0.00 70 1021.2
20260510121433 15 123 0.0 0.0 0.00 0.00 0.00 67 1021.2
20260510120930 15 113 0.0 0.0 0.00 0.00 0.00 66 1020.8
20260510120427 15 116 0.0 1.6 0.00 0.00 0.00 66 1020.4
20260510115923 15 121 0.0 0.0 0.00 0.00 0.00 67 1020.1
20260510115421 15 118 0.0 0.0 0.00 0.00 0.00 67 1019.7
20260510114916 15 127 0.0 0.0 0.00 0.00 0.00 68 1019.3
20260510114413 15 126 0.0 0.0 0.00 0.00 0.00 67 1018.8
20260510113908 15 121 0.0 0.0 0.00 0.00 0.00 67 1018.9
20260510113404 15 115 0.0 1.6 0.00 0.00 0.00 67 1018.9
20260510112902 15 32 3.2 4.8 0.00 0.00 0.00 67 1018.6
20260510112359 15 352 4.8 4.8 0.00 0.00 0.00 66 1018.5
20260510111855 15 114 0.0 0.0 0.00 0.00 0.00 67 1018.0
20260510111351 15 104 0.0 0.0 0.00 0.00 0.00 67 1017.8
20260510110846 15 72 1.6 3.2 0.00 0.00 0.00 66 1017.9
20260510110343 15 97 3.2 4.8 0.00 0.00 0.00 66 1017.9
20260510105840 15 121 0.0 0.0 0.00 0.00 0.00 67 1017.6
20260510105339 15 116 1.6 1.6 0.00 0.00 0.00 67 1017.2
20260510104835 15 124 0.0 0.0 0.00 0.00 0.00 66 1017.2
20260510104333 15 118 0.0 0.0 0.00 0.00 0.00 65 1017.5
20260510103829 15 122 0.0 0.0 0.00 0.00 0.00 65 1017.6
20260510103326 15 125 0.0 0.0 0.00 0.00 0.00 66 1017.8
20260510102821 16 105 0.0 0.0 0.00 0.00 0.00 65 1017.5
20260510102317 16 115 0.0 0.0 0.00 0.00 0.00 65 1017.3
20260510101815 16 119 0.0 0.0 0.00 0.00 0.00 64 1017.3
20260510101313 16 102 0.0 1.6 0.00 0.00 0.00 65 1017.2
20260510100809 16 118 0.0 0.0 0.00 0.00 0.00 65 1017.2
20260510100307 15 109 0.0 1.6 0.00 0.00 0.00 65 1017.0
20260510095802 15 122 0.0 0.0 0.00 0.00 0.00 65 1016.8
20260510095257 15 118 0.0 0.0 0.00 0.00 0.00 66 1017.1
20260510094756 15 124 0.0 0.0 0.00 0.00 0.00 66 1016.7
20260510094252 15 119 0.0 0.0 0.00 0.00 0.00 67 1017.1
20260510093748 15 122 0.0 0.0 0.00 0.00 0.00 67 1016.8
20260510093245 15 117 1.6 1.6 0.00 0.00 0.00 67 1016.5
20260510092741 15 112 1.6 3.2 0.00 0.00 0.00 67 1016.3
20260510092237 15 126 0.0 0.0 0.00 0.00 0.00 67 1016.3
20260510091733 15 124 0.0 0.0 0.00 0.00 0.00 68 1016.3
20260510091230 15 121 0.0 0.0 0.00 0.00 0.00 67 1016.3
20260510090726 15 112 0.0 0.0 0.00 0.00 0.00 68 1016.1
20260510090224 15 125 0.0 0.0 0.00 0.00 0.00 69 1016.3
20260510085719 15 121 0.0 0.0 0.00 0.00 0.00 68 1016.2
20260510085214 15 117 0.0 0.0 0.00 0.00 0.00 68 1015.9
20260510084710 15 121 0.0 0.0 0.00 0.00 0.00 68 1016.2
20260510084208 15 105 0.0 0.0 0.00 0.00 0.00 68 1016.1
20260510083704 16 122 0.0 0.0 0.00 0.00 0.00 69 1016.1
20260510083201 16 120 0.0 0.0 0.00 0.00 0.00 69 1016.1
20260510082656 16 122 0.0 0.0 0.00 0.00 0.00 70 1016.0
20260510082152 15 117 0.0 1.6 0.00 0.00 0.00 71 1016.0
20260510081647 15 127 0.0 0.0 0.00 0.00 0.00 71 1016.1
20260510081143 15 120 0.0 0.0 0.00 0.00 0.00 72 1016.1
20260510080643 15 117 0.0 0.0 0.00 0.00 0.00 72 1016.1
20260510080140 15 127 0.0 0.0 0.00 0.00 0.00 73 1015.9
20260510075637 15 124 0.0 0.0 0.00 0.00 0.00 73 1016.0
20260510075134 15 122 0.0 0.0 0.00 0.00 0.00 73 1015.6
20260510074631 15 123 0.0 0.0 0.00 0.00 0.00 73 1015.6
20260510074126 15 123 0.0 0.0 0.00 0.00 0.00 73 1015.7
20260510073623 15 123 0.0 0.0 0.00 0.00 0.00 73 1015.5
20260510073120 15 123 0.0 0.0 0.00 0.00 0.00 72 1015.7
20260510072616 15 123 0.0 0.0 0.00 0.00 0.00 72 1015.5
20260510072113 15 123 0.0 0.0 0.00 0.00 0.00 72 1015.6
20260510071608 15 122 0.0 0.0 0.00 0.00 0.00 72 1015.5
20260510071107 16 119 0.0 0.0 0.00 0.00 0.00 72 1015.3
20260510070603 16 125 0.0 0.0 0.00 0.00 0.00 72 1015.2
20260510065557 16 125 0.0 0.0 0.00 0.00 0.00 72 1015.2
20260510065053 16 124 0.0 0.0 0.00 0.00 0.00 71 1015.2
20260510064549 16 125 0.0 0.0 0.00 0.00 0.00 72 1015.0
20260510064046 16 125 0.0 0.0 0.00 0.00 0.00 73 1015.1
20260510063543 15 124 0.0 0.0 0.00 0.00 0.00 73 1015.1
20260510063040 16 125 0.0 0.0 0.00 0.00 0.00 73 1015.0
20260510062536 16 125 0.0 0.0 0.00 0.00 0.00 73 1015.3
20260510062031 16 125 0.0 0.0 0.00 0.00 0.00 73 1015.1
20260510061528 16 125 0.0 0.0 0.00 0.00 0.00 72 1015.0
20260510061025 16 125 0.0 0.0 0.00 0.00 0.00 72 1015.0
20260510060521 16 125 0.0 0.0 0.00 0.00 0.00 71 1014.6
20260510060017 16 125 0.0 0.0 0.00 0.00 0.00 71 1014.3
20260510055514 17 125 0.0 0.0 0.00 0.00 0.00 70 1014.7
20260510055012 17 126 0.0 0.0 0.00 0.00 0.00 70 1014.2
20260510054507 17 118 0.0 0.0 0.00 0.00 0.00 69 1014.3
20260510054003 17 120 0.0 0.0 0.00 0.00 0.00 69 1014.2
20260510053457 17 125 0.0 0.0 0.00 0.00 0.00 69 1014.0
20260510052954 17 130 0.0 0.0 0.00 0.00 0.00 69 1014.1
20260510052450 17 132 0.0 0.0 0.00 0.00 0.00 69 1013.8
20260510051947 17 351 3.2 3.2 0.00 0.00 0.00 68 1013.7
20260510051442 16 130 0.0 0.0 0.00 0.00 0.00 70 1013.6
20260510050939 16 130 0.0 0.0 0.00 0.00 0.00 70 1014.0
20260510050436 16 124 0.0 0.0 0.00 0.00 0.00 72 1013.8
20260510045933 16 123 0.0 0.0 0.00 0.00 0.00 74 1013.8
20260510045431 16 123 0.0 0.0 0.00 0.00 0.00 76 1013.6
20260510044927 16 126 0.0 0.0 0.00 0.00 0.00 76 1013.4
20260510044424 16 127 0.0 0.0 0.00 0.00 0.00 76 1013.6
20260510043921 16 127 0.0 0.0 0.00 0.00 0.00 76 1013.4
20260510043417 16 127 0.0 0.0 0.00 0.00 0.00 75 1013.5
20260510042915 16 127 0.0 0.0 0.00 0.00 0.00 75 1013.4
20260510042411 16 127 0.0 0.0 0.00 0.00 0.00 75 1013.3
20260510041906 16 127 0.0 0.0 0.00 0.00 0.00 75 1013.7
20260510041404 16 127 0.0 0.0 0.00 0.00 0.00 76 1013.7
20260510040901 16 127 0.0 0.0 0.00 0.00 0.00 76 1014.1
20260510040358 16 127 0.0 0.0 0.00 0.00 0.00 76 1013.8
20260510035854 16 127 0.0 0.0 0.00 0.00 0.00 76 1013.7
20260510035350 16 126 0.0 0.0 0.00 0.00 0.00 76 1013.2
20260510034845 16 126 0.0 0.0 0.00 0.00 0.00 76 1013.2
20260510034343 17 126 0.0 0.0 0.00 0.00 0.00 74 1013.3
20260510033839 17 126 0.0 0.0 0.00 0.00 0.00 74 1013.3
20260510033336 17 126 0.0 0.0 0.00 0.00 0.00 74 1013.1
20260510032833 17 126 0.0 0.0 0.00 0.00 0.00 73 1012.9
20260510032330 17 126 0.0 0.0 0.00 0.00 0.00 73 1013.0
20260510031825 17 125 0.0 0.0 0.00 0.00 0.00 73 1012.8
20260510031321 17 126 0.0 0.0 0.00 0.00 0.00 72 1012.6
20260510030815 18 126 0.0 0.0 0.00 0.00 0.00 70 1012.6
20260510030312 18 125 0.0 0.0 0.00 0.00 0.00 70 1012.6
20260510025809 18 125 0.0 0.0 0.00 0.00 0.00 67 1012.5
20260510025307 18 123 0.0 0.0 0.00 0.00 0.00 67 1012.8
20260510024803 18 301 0.0 0.0 0.00 0.00 0.00 66 1012.7
20260510024300 18 136 0.0 0.0 0.00 0.00 0.00 67 1012.7
20260510023756 19 131 0.0 0.0 0.00 0.00 0.00 68 1012.6
20260510023253 19 123 0.0 0.0 0.00 0.00 0.00 67 1012.7
20260510022750 20 129 0.0 0.0 0.00 0.00 0.00 67 1013.3
20260510022250 20 161 1.6 3.2 0.00 0.00 0.00 65 1013.5
20260510021749 20 186 4.8 4.8 0.00 0.00 0.00 63 1013.0
20260510021247 18 129 0.0 0.0 0.00 0.00 0.00 75 1013.3
20260510020743 19 70 1.6 3.2 0.00 0.00 0.00 67 1013.5
20260510020242 19 116 0.0 0.0 0.00 0.00 0.00 69 1013.3
20260510015739 21 111 0.0 1.6 0.00 0.00 0.00 68 1013.1
20260510015235 22 119 0.0 0.0 0.00 0.00 0.00 55 1012.8
20260510014730 22 135 0.0 0.0 0.00 0.00 0.00 51 1013.3
20260510014228 23 241 6.4 9.7 0.00 0.00 0.00 44 1013.5
20260510013724 25 123 0.0 1.6 0.00 0.00 0.00 40 1013.4
20260510013219 25 189 8.0 11.3 0.00 0.00 0.00 36 1013.3
20260510012719 25 71 3.2 4.8 0.00 0.00 0.00 39 1012.8
20260510012215 24 127 1.6 3.2 0.00 0.00 0.00 38 1012.4
20260510011709 24 143 0.0 0.0 0.00 0.00 0.00 38 1012.3
20260510011205 25 138 0.0 0.0 0.00 0.00 0.00 37 1011.8
20260510010702 25 134 0.0 0.0 0.00 0.00 0.00 36 1011.3
20260510010158 25 136 0.0 0.0 0.00 0.00 0.00 36 1010.9
20260510005655 25 127 0.0 0.0 0.00 0.00 0.00 35 1010.9
20260510005151 25 128 0.0 0.0 0.00 0.00 0.00 34 1010.3
20260510004650 25 126 0.0 0.0 0.00 0.00 0.00 33 1010.2
20260510004148 25 116 3.2 3.2 0.00 0.00 0.00 32 1009.8
20260510003645 26 132 0.0 0.0 0.00 0.00 0.00 32 1009.7
20260510003140 26 123 0.0 0.0 0.00 0.00 0.00 33 1009.5
20260510002635 26 122 0.0 0.0 0.00 0.00 0.00 30 1009.2
20260510002132 26 125 0.0 0.0 0.00 0.00 0.00 29 1009.1
20260510001629 27 126 0.0 0.0 0.00 0.00 0.00 29 1009.2
20260510001128 27 131 0.0 0.0 0.00 0.00 0.00 28 1009.1
20260510000627 27 127 0.0 0.0 0.00 0.00 0.00 28 1009.2
20260510000126 27 124 0.0 0.0 0.00 0.00 0.00 28 1009.3
20260509235621 28 124 0.0 1.6 0.00 0.00 0.00 27 1009.0
20260509235118 28 126 0.0 0.0 0.00 0.00 0.00 26 1009.2
20260509234614 30 131 0.0 0.0 0.00 0.00 0.00 24 1008.9
20260509234113 30 62 0.0 1.6 0.00 0.00 0.00 23 1009.1
20260509233610 30 156 3.2 3.2 0.00 0.00 0.00 23 1009.1
20260509233107 30 157 4.8 4.8 0.00 0.00 0.00 23 1009.5
20260509232603 31 141 0.0 0.0 0.00 0.00 0.00 23 1009.5
20260509232100 31 226 4.8 8.0 0.00 0.00 0.00 21 1009.3
20260509231556 32 147 0.0 0.0 0.00 0.00 0.00 24 1009.6
20260509231054 31 134 0.0 0.0 0.00 0.00 0.00 22 1009.6
20260509230551 31 166 3.2 3.2 0.00 0.00 0.00 21 1009.6
20260509230048 31 233 1.6 3.2 0.00 0.00 0.00 21 1009.9
20260509225549 32 127 1.6 1.6 0.00 0.00 0.00 22 1009.9
20260509225044 31 138 0.0 1.6 0.00 0.00 0.00 22 1009.3
20260509224540 31 155 0.0 1.6 0.00 0.00 0.00 22 1009.7
20260509224037 31 133 1.6 1.6 0.00 0.00 0.00 23 1009.5
20260509223534 30 136 0.0 0.0 0.00 0.00 0.00 23 1009.3
20260509223032 31 112 1.6 1.6 0.00 0.00 0.00 22 1009.8
20260509222528 31 254 3.2 4.8 0.00 0.00 0.00 21 1009.5
20260509222023 32 152 1.6 3.2 0.00 0.00 0.00 22 1009.6
20260509221520 32 151 0.0 0.0 0.00 0.00 0.00 21 1009.5
20260509221016 32 118 1.6 1.6 0.00 0.00 0.00 21 1009.6
20260509220512 32 126 0.0 0.0 0.00 0.00 0.00 21 1009.2
20260509220008 32 142 3.2 4.8 0.00 0.00 0.00 22 1009.6
20260509215503 32 131 0.0 1.6 0.00 0.00 0.00 22 1009.6
20260509215001 32 196 1.6 3.2 0.00 0.00 0.00 21 1009.7
20260509214458 31 126 1.6 1.6 0.00 0.00 0.00 20 1009.2
20260509213955 31 226 3.2 4.8 0.00 0.00 0.00 20 1009.3
20260509213451 31 201 4.8 4.8 0.00 0.00 0.00 20 1009.1
20260509212948 32 193 3.2 3.2 0.00 0.00 0.00 21 1009.5
20260509212445 31 204 3.2 3.2 0.00 0.00 0.00 21 1009.6
20260509211941 31 167 1.6 1.6 0.00 0.00 0.00 20 1009.6
20260509211437 32 164 4.8 9.7 0.00 0.00 0.00 21 1009.8
20260509210934 32 135 1.6 1.6 0.00 0.00 0.00 22 1009.9
20260509210431 32 135 0.0 0.0 0.00 0.00 0.00 23 1010.1
20260509205926 32 168 3.2 4.8 0.00 0.00 0.00 20 1009.9
20260509205421 32 146 0.0 1.6 0.00 0.00 0.00 20 1009.9
20260509204917 32 137 0.0 1.6 0.00 0.00 0.00 20 1010.3
20260509204414 31 113 0.0 0.0 0.00 0.00 0.00 21 1010.1
20260509203910 32 180 3.2 4.8 0.00 0.00 0.00 20 1010.3
20260509203406 31 138 1.6 1.6 0.00 0.00 0.00 22 1010.3
20260509202904 32 201 3.2 3.2 0.00 0.00 0.00 20 1010.3
20260509202359 31 172 1.6 1.6 0.00 0.00 0.00 23 1010.4
20260509201855 31 147 1.6 3.2 0.00 0.00 0.00 23 1010.7
20260509201350 30 131 0.0 0.0 0.00 0.00 0.00 24 1010.5
20260509200848 31 117 0.0 0.0 0.00 0.00 0.00 24 1010.5
20260509200342 31 158 1.6 3.2 0.00 0.00 0.00 23 1010.5
20260509195839 31 269 3.2 3.2 0.00 0.00 0.00 21 1010.6
20260509195334 31 134 1.6 3.2 0.00 0.00 0.00 22 1010.8
20260509194834 31 134 0.0 1.6 0.00 0.00 0.00 22 1010.7
20260509194330 31 203 1.6 3.2 0.00 0.00 0.00 22 1010.8
20260509193827 31 282 6.4 8.0 0.00 0.00 0.00 22 1010.8
20260509193321 31 187 1.6 1.6 0.00 0.00 0.00 23 1011.0
20260509192817 30 129 0.0 0.0 0.00 0.00 0.00 24 1011.0
20260509192314 30 135 0.0 0.0 0.00 0.00 0.00 24 1011.0
20260509191809 30 130 0.0 0.0 0.00 0.00 0.00 24 1011.0
20260509191305 31 231 3.2 3.2 0.00 0.00 0.00 23 1011.0
20260509190801 31 110 4.8 4.8 0.00 0.00 0.00 22 1011.1
20260509190258 31 193 3.2 4.8 0.00 0.00 0.00 22 1011.1
20260509185755 30 205 1.6 1.6 0.00 0.00 0.00 22 1011.2
20260509185251 30 241 4.8 4.8 0.00 0.00 0.00 23 1011.2
20260509184749 30 177 4.8 4.8 0.00 0.00 0.00 23 1011.3
20260509184247 30 357 1.6 3.2 0.00 0.00 0.00 25 1011.5
20260509183743 30 117 1.6 1.6 0.00 0.00 0.00 25 1011.5
20260509183238 30 256 4.8 4.8 0.00 0.00 0.00 25 1011.6
20260509182734 30 138 0.0 0.0 0.00 0.00 0.00 25 1011.5
20260509182232 29 224 3.2 8.0 0.00 0.00 0.00 25 1011.7
20260509181729 29 235 4.8 4.8 0.00 0.00 0.00 25 1011.8
20260509181226 30 352 6.4 9.7 0.00 0.00 0.00 25 1011.6
20260509180723 30 242 1.6 1.6 0.00 0.00 0.00 25 1012.0
20260509180220 28 194 3.2 3.2 0.00 0.00 0.00 26 1012.2
20260509175716 28 213 4.8 8.0 0.00 0.00 0.00 25 1012.3
20260509175212 30 286 8.0 12.9 0.00 0.00 0.00 26 1012.3
20260509174708 29 204 3.2 4.8 0.00 0.00 0.00 26 1012.1
20260509174204 29 199 4.8 8.0 0.00 0.00 0.00 27 1012.4
20260509173700 29 255 8.0 9.7 0.00 0.00 0.00 25 1012.4
20260509173155 29 160 3.2 3.2 0.00 0.00 0.00 26 1012.4
20260509172652 28 222 6.4 8.0 0.00 0.00 0.00 27 1012.5
20260509172148 29 144 1.6 4.8 0.00 0.00 0.00 27 1012.5
20260509171643 28 173 8.0 12.9 0.00 0.00 0.00 26 1012.7
20260509171140 28 206 3.2 4.8 0.00 0.00 0.00 27 1012.8
20260509170638 28 235 3.2 8.0 0.00 0.00 0.00 28 1012.9
20260509170133 28 255 4.8 8.0 0.00 0.00 0.00 28 1012.8
20260509165631 28 253 6.4 8.0 0.00 0.00 0.00 28 1012.9
20260509165127 27 21 3.2 4.8 0.00 0.00 0.00 29 1012.9
20260509164624 28 235 6.4 9.7 0.00 0.00 0.00 28 1012.9